sat.trackr.live / text

‹ back to catalog

HULIANWANG DIGUI-138

NORAD 67436 · 2026-007B

PAYLOAD ACTIVE UNKNOWN

§ Identity

Operator
Country
PRC
Launch date
2026-01-13
Launch site
WSC
Launch vehicle
Mass (kg)
RCS (m²)

External: N2YO · Heavens-Above · Gunter

§ Orbital elements

Epoch: 2026-09-20T06:35:22.881696Z

Period
108.33 min
Inclination
50.0047°
Eccentricity
0.0000397
Mean motion
13.29329051 rev/d
Perigee alt
1,149.0 km
Apogee alt
1,149.6 km
Semi-major
7,527.4 km
B*
3.0547e-5
RAAN
104.9499°
Arg perigee
23.5222°
Mean anomaly
336.5668°
Rev number
3,343

§ Raw data

HULIANWANG DIGUI-1381 67436U 26007B   26263.27457039 -.00000110  00000+0  30547-4 0  99922 67436  50.0047 104.9499 0000397  23.5222 336.5668 13.29329051 33430

JSON: /api/v1/satellites/67436 · /tle

For live sub-satellite position, see the globe view (requires WebGL).

§ Visibility from observer

Set your observer location to see the next 7 days of passes ≥ 10°. The values pass through the URL so the page stays shareable.

No JS? Fill the form by hand. The geolocation button needs JavaScript.